Theta_e
354 357 365 362 363 364 365 364 363 364 364 363 364 364 364 363 363 363 362 363 364 363 361 362 362 362 361 361 361 360 357 359 362 362 362 361 361 360 359 357 363 356 360
355 357 367 364 364 364 365 366 365 365 363 364 365 364 361 363 363 362 362 363 363 364 363 362 363 363 361 361 360 360 360 359 357 361 361 362 361 360 358 358 361 357 358
353 358 363 367 364 365 364 364 364 364 365 364 362 364 359 362 364 363 362 363 363 363 363 363 362 362 362 361 361 360 360 360 361 359 357 349 350 356 358 357 359 360 358
350 356 360 366 366 365 365 365 365 365 364 363 364 364 360 364 363 362 362 361 364 363 363 360 361 362 362 362 360 359 360 359 359 357 357 353 354 358 359 359 359 360 359
349 354 362 367 366 365 365 364 365 363 364 365 365 364 363 362 363 361 361 361 362 361 362 360 361 361 361 361 361 361 360 357 359 357 356 360 355 360 360 360 358 357 357
348 356 364 367 364 366 364 365 364 364 365 364 364 363 364 362 359 362 363 362 361 360 358 359 360 361 361 361 359 359 356 356 358 352 357 356 358 359 359 358 360 359 359
348 357 361 367 366 364 364 363 363 363 364 363 363 362 361 361 362 361 360 360 359 357 357 358 359 359 361 361 358 354 354 355 354 352 352 354 358 361 359 359 359 358 359
349 352 362 366 368 364 363 364 363 363 362 361 362 362 362 362 360 359 359 361 360 359 357 356 357 359 361 359 354 354 353 356 349 349 354 354 360 359 359 358 359 358 358
349 351 358 360 364 365 362 362 362 361 362 362 361 361 362 363 362 359 358 358 357 359 359 359 358 359 359 359 356 354 357 359 356 348 348 357 362 357 360 359 359 358 358
347 351 355 358 358 361 361 361 361 361 361 361 361 360 359 359 357 356 357 356 357 356 357 357 356 360 359 359 357 356 357 360 353 351 349 352 363 360 358 358 359 358 359
345 348 349 352 354 354 355 360 362 362 362 361 360 361 360 357 359 360 358 356 355 356 356 356 358 358 359 358 358 356 358 352 350 347 346 360 362 361 358 358 359 360 359
342 345 346 349 351 353 351 361 358 357 356 357 359 363 362 361 361 357 349 350 352 353 355 356 356 355 356 352 356 357 348 345 352 349 352 358 359 360 360 359 358 359 359
343 345 346 348 351 351 350 353 354 354 358 358 364 363 365 360 359 355 351 350 353 356 351 352 354 352 350 350 352 353 350 347 349 350 355 360 359 356 356 359 361 362 360
342 343 345 348 352 352 352 350 351 350 354 356 354 363 362 358 358 356 353 352 353 359 354 353 355 354 353 352 352 350 349 351 349 351 356 361 361 358 358 358 359 359 361
342 344 346 349 354 356 357 352 351 350 351 351 359 361 361 357 358 358 358 360 352 357 354 351 355 352 352 353 353 354 351 350 350 348 355 362 361 359 358 359 359 360 358
346 346 348 350 355 357 357 357 353 353 352 353 355 359 364 361 362 359 367 365 355 357 354 352 360 359 360 355 352 354 353 352 353 356 353 358 362 361 360 358 360 362 362
350 351 353 355 357 360 359 358 356 354 353 353 353 363 364 368 365 365 366 365 367 356 358 357 351 358 355 355 358 351 351 355 351 355 353 352 358 362 362 362 362 363 364
354 354 345 351 358 360 361 360 357 357 357 357 364 363 364 366 366 367 358 357 369 367 364 359 356 351 361 357 356 361 353 353 355 353 353 351 351 354 362 362 362 363 364
356 355 345 348 354 360 364 365 364 367 359 359 358 357 361 364 367 370 362 365 371 360 364 361 358 354 353 354 350 351 357 356 352 350 351 354 352 354 358 360 360 362 361
357 359 353 353 354 361 362 364 362 361 360 359 359 359 362 363 364 371 362 364 370 358 361 357 357 361 357 352 350 348 351 354 356 357 353 354 354 353 352 358 358 355 361
356 359 362 361 366 364 361 357 358 356 358 362 359 358 361 361 368 367 362 364 365 369 364 364 362 354 360 360 359 353 354 356 354 353 352 355 354 353 352 353 353 354 357
356 358 361 363 365 365 361 359 358 360 357 360 354 358 359 360 361 357 362 361 364 365 366 365 361 357 359 361 348 355 345 349 350 352 354 352 354 353 352 353 356 354 356
355 357 360 364 367 366 362 361 362 362 362 350 351 353 354 355 356 359 360 361 361 368 363 364 362 360 351 356 359 349 345 343 347 352 353 353 355 353 353 355 352 354 357
354 357 359 363 365 365 363 363 363 357 352 348 352 355 356 360 360 362 361 360 359 359 363 362 365 362 361 352 357 354 352 352 340 338 352 353 352 355 354 353 352 356 360
356 355 358 363 363 363 365 369 361 359 357 353 355 356 361 364 361 359 360 360 358 360 363 362 361 362 359 355 355 353 350 352 356 344 342 349 353 354 354 350 354 355 354
354 354 357 362 365 366 366 364 363 363 360 356 356 352 352 352 353 357 359 361 360 358 361 361 361 360 363 360 361 356 348 351 351 352 346 350 346 349 353 353 353 354 356
Wind_Speed
15 18 12 12 10 12 15 15 14 12 12 11 10 10 10 9 12 12 12 12 12 12 12 10 12 10 12 12 11 13 12 11 12 13 13 12 11 9 8 8 15 16 13
21 19 13 13 13 13 14 14 13 13 12 10 9 11 9 8 10 10 10 10 12 13 11 10 12 13 13 12 12 12 10 10 11 12 13 12 11 9 7 8 16 14 12
21 19 16 13 14 14 14 14 13 13 11 11 8 11 9 8 9 9 9 9 10 11 11 10 11 11 12 12 12 11 10 9 10 13 16 11 11 9 10 13 16 13 12
20 18 18 13 13 14 14 13 13 12 11 10 8 10 9 9 9 9 9 8 10 10 11 10 9 12 11 11 11 10 7 6 7 5 6 8 13 9 10 12 12 12 12
19 17 18 15 14 15 14 13 13 11 9 9 11 10 8 9 8 7 7 7 9 8 9 9 10 10 11 10 11 10 6 3 8 4 6 9 10 10 10 11 12 10 8
19 20 17 16 16 15 15 13 12 9 11 9 11 9 8 7 8 7 8 9 8 8 8 7 8 9 10 11 9 9 5 5 10 7 10 7 12 11 8 8 12 11 11
18 20 17 14 15 14 14 12 11 9 11 8 8 8 7 6 6 6 6 5 6 6 6 7 8 7 8 8 6 4 2 5 8 2 7 8 11 9 9 9 10 10 10
18 18 16 14 13 14 13 13 11 8 10 8 7 6 7 8 6 4 4 4 4 4 6 6 5 7 8 6 4 5 1 8 6 4 4 12 12 8 9 9 8 10 10
17 18 14 15 12 13 13 11 11 8 7 5 4 4 4 6 7 5 2 3 3 4 4 4 6 5 5 5 4 4 4 8 9 4 4 9 11 9 9 9 9 9 9
15 16 13 13 13 12 13 12 10 8 7 6 5 4 3 3 2 2 2 1 3 3 4 5 6 6 6 6 5 5 6 12 10 9 7 10 13 10 9 9 8 10 9
11 14 15 14 13 12 12 11 9 8 7 6 7 8 8 4 3 1 2 4 6 7 6 7 7 7 7 9 9 9 9 9 10 6 3 19 14 11 9 8 9 9 9
13 13 14 14 14 11 9 14 11 11 11 10 9 10 5 5 3 5 6 10 11 11 10 11 12 11 10 10 10 12 8 12 11 4 6 17 16 10 10 11 10 10 10
13 11 11 10 12 11 5 8 6 7 5 8 7 7 4 3 4 7 5 6 3 11 9 9 5 9 12 9 5 9 10 11 5 4 11 17 16 13 12 12 12 12 12
13 12 10 11 6 7 6 6 6 5 5 8 6 9 7 5 7 6 5 5 4 5 6 7 5 7 7 8 8 7 11 6 7 5 11 17 18 16 14 14 14 14 13
13 12 11 9 9 7 6 5 6 5 5 6 10 10 9 8 8 4 6 4 7 5 4 7 5 5 6 9 6 7 12 7 7 7 4 19 18 18 17 17 16 16 16
11 11 11 10 10 9 8 8 6 5 6 4 2 6 6 5 3 6 5 6 8 4 6 7 4 9 6 7 9 8 10 9 8 5 4 10 20 20 19 18 17 17 17
12 13 8 9 10 10 11 9 9 7 9 7 6 6 7 7 7 5 6 7 6 6 6 9 5 6 8 9 8 7 10 11 9 7 11 10 13 20 21 21 20 18 18
3 12 10 9 5 13 10 8 8 8 6 5 2 3 8 7 8 6 5 8 6 6 8 9 7 9 5 5 6 7 7 7 7 10 11 10 8 10 16 21 21 20 19
11 17 10 8 9 6 10 7 7 6 6 6 7 7 8 8 8 6 7 9 6 5 8 7 7 9 9 6 4 6 10 6 9 9 10 11 10 9 7 17 22 21 22
10 19 15 12 13 10 5 6 7 6 7 7 7 8 9 8 9 5 7 9 6 7 8 8 11 8 5 4 7 9 10 11 5 5 8 10 11 12 12 8 11 13 20
12 12 18 16 15 10 7 7 8 8 7 6 4 9 8 8 6 8 7 7 8 7 11 9 7 9 8 8 5 7 6 8 11 12 6 10 13 13 9 6 8 8 12
10 12 12 12 11 8 8 7 4 3 7 1 1 2 3 4 3 7 9 8 8 8 11 10 11 6 7 6 7 4 3 6 9 12 11 13 12 8 10 13 13 13 12
11 11 11 11 11 10 7 5 5 4 2 5 5 4 4 5 7 7 9 9 11 8 8 11 11 13 10 7 10 7 4 4 2 4 7 11 12 11 9 12 11 11 12
12 11 11 11 11 10 9 7 8 7 7 5 3 2 4 6 6 6 7 8 9 9 9 10 10 11 10 11 5 8 12 4 4 2 5 6 11 8 12 6 7 12 13
14 12 11 11 10 9 9 8 8 8 6 5 3 1 4 5 5 4 6 10 9 9 9 11 11 11 9 9 7 4 6 7 9 9 5 5 6 9 12 7 6 10 12
14 12 11 11 8 7 8 8 7 6 5 5 2 5 5 4 3 3 6 8 11 12 11 9 11 12 10 10 10 10 9 6 8 7 8 8 9 9 12 12 7 3 9
Wind_Direction
151 134 151 141 130 122 132 132 131 126 120 119 118 109 96 103 101 104 103 100 94 122 113 120 121 114 103 102 103 106 106 104 105 109 106 104 106 109 118 140 158 101 104
141 142 153 144 139 130 128 132 131 127 126 122 104 107 106 102 107 107 107 102 100 103 123 111 115 113 115 116 116 109 111 115 120 121 116 104 100 93 71 78 79 101 104
135 135 154 142 140 134 132 132 132 130 133 112 119 112 110 118 112 116 115 103 115 114 114 109 108 112 111 115 104 106 120 130 141 157 165 123 104 101 89 87 93 106 113
139 147 138 140 141 141 137 135 136 135 132 144 128 118 120 106 109 106 96 96 98 107 116 112 111 106 102 101 107 107 117 138 184 174 202 116 107 103 97 99 106 113 113
140 148 121 142 145 146 144 144 137 141 139 112 105 115 125 122 105 121 116 124 119 116 102 118 112 122 116 109 108 110 116 199 248 207 46 44 114 117 117 123 130 127 149
147 124 132 140 147 145 147 146 148 150 130 131 122 111 106 114 118 120 115 122 120 123 123 122 121 118 110 111 106 114 131 246 288 135 134 82 80 123 136 121 105 112 115
137 120 140 146 146 146 148 149 145 151 121 112 120 129 124 115 112 134 129 121 137 131 133 139 141 140 127 116 118 123 186 265 284 46 145 148 108 129 124 114 114 119 120
128 138 136 147 149 150 151 154 157 159 133 153 156 147 149 146 131 123 108 114 135 161 152 154 159 161 150 137 126 142 210 268 207 189 27 94 119 134 134 129 126 128 127
139 136 146 153 147 150 156 157 161 167 154 148 139 150 151 127 141 135 127 164 171 177 181 170 176 199 164 163 164 191 260 276 283 135 185 139 133 143 145 144 143 142 140
143 136 151 147 160 167 159 162 169 174 174 177 179 179 153 144 139 151 185 301 279 245 228 217 216 202 191 203 207 212 238 263 261 171 227 104 139 159 160 161 160 159 155
157 154 159 159 164 181 158 155 170 181 186 180 192 201 185 170 194 145 232 262 272 271 259 254 242 232 224 218 220 224 238 243 354 209 155 137 134 169 170 177 178 172 165
168 172 168 170 158 178 171 141 185 184 192 198 196 172 213 106 208 230 241 250 247 251 248 241 231 228 233 240 195 209 228 248 194 133 140 137 142 173 185 187 191 186 182
171 184 178 175 153 173 198 166 185 184 189 190 172 191 171 179 224 234 252 237 299 240 245 203 255 229 227 241 178 196 217 231 189 262 151 150 152 178 200 203 201 201 189
175 186 196 167 173 207 171 193 207 229 197 195 168 202 149 219 200 198 224 249 202 211 231 216 213 227 240 230 272 227 241 226 249 190 158 163 162 178 204 212 208 207 204
175 186 188 191 175 202 229 227 232 226 201 231 158 190 159 205 246 181 219 225 250 221 259 278 243 276 281 246 246 246 259 246 242 272 155 169 169 179 200 213 215 212 210
176 173 194 187 173 200 215 231 244 234 264 267 209 154 215 242 248 201 213 215 229 214 213 236 237 265 248 274 256 232 235 246 235 209 252 182 181 184 194 212 216 218 215
181 165 174 188 178 197 202 209 220 243 222 229 221 163 209 180 264 262 225 217 220 213 226 223 250 230 251 254 247 236 250 240 252 243 221 243 191 191 194 203 211 217 218
190 108 58 322 266 179 210 205 230 218 244 260 325 224 188 194 215 233 249 259 224 225 225 229 214 242 250 236 270 279 263 253 226 254 231 225 219 203 202 207 210 209 217
183 133 160 212 260 247 188 210 238 227 224 240 232 231 221 208 215 225 240 260 211 210 226 242 236 219 237 211 183 255 276 277 241 231 255 250 264 248 189 202 209 210 214
182 150 178 187 227 207 227 220 239 223 227 240 246 251 254 241 236 229 256 257 231 231 230 229 226 232 225 232 199 226 241 252 238 251 259 232 217 240 229 220 201 208 214
172 186 179 188 209 191 209 213 210 214 216 215 265 348 309 281 304 255 266 269 278 245 254 230 238 239 234 209 225 256 251 258 255 232 242 250 229 228 234 216 189 210 204
182 180 192 195 195 192 205 225 237 221 238 32 324 318 268 255 285 297 295 286 275 279 271 242 231 231 232 212 216 220 251 234 236 247 210 238 247 223 213 223 199 199 222
176 175 181 186 176 194 216 204 189 212 224 215 198 195 186 250 280 288 294 308 307 286 267 263 235 228 229 213 224 231 218 233 13 333 253 215 227 228 220 216 215 213 215
172 166 164 179 183 191 195 192 206 221 219 208 268 196 266 248 262 285 315 308 286 284 268 264 253 234 232 229 191 218 249 207 181 245 261 217 222 226 241 227 212 207 224
165 171 164 170 183 208 199 224 193 228 222 236 268 290 253 224 250 269 327 328 316 300 297 270 254 240 226 235 213 205 226 252 250 243 249 258 211 200 233 231 209 216 224
159 169 166 155 170 190 199 225 232 190 256 284 18 315 289 309 321 320 343 323 316 325 325 301 273 249 232 217 237 212 221 216 228 232 231 254 221 245 215 205 205 223 208